Weather History for Montpelier, VT

Change the Weather History Date:

Monday, November 5, 2012

  Actual Average Record
Temperature  
Mean Temperature 30 °F 39 °F  
Max Temperature 33 °F 48 °F 70 °F (1994)
Min Temperature 27 °F 30 °F 12 °F (1951)
Degree Days  
Heating Degree Days 35 26  
Month to date heating degree days 140 126  
Since 1 July heating degree days 951 1082  
Cooling Degree Days 0 0  
Month to date cooling degree days 0  
Year to date cooling degree days 264  
Moisture  
Dew Point 24 °F    
Average Humidity 78    
Maximum Humidity 92    
Minimum Humidity 63    
Precipitation  
Precipitation 0.05 in 0.11 in 1.67 in (1969)
Month to date precipitation 0.05 0.56  
Year to date precipitation 29.50 31.92  
Sea Level Pressure  
Sea Level Pressure 30.07 in    
Wind  
Wind Speed 7 mph (NW)    
Max Wind Speed 15 mph    
Max Gust Speed 22 mph    
Visibility 6 miles    
Events Fog , Snow    
T = Trace of Precipitation, MM = Missing Value Source: NWS Daily Summary

Daily Weather History Graph

Daily Weather History Graph

Search for Another Location

Airport:

Trip Planner

Search our weather history database for the weather conditions in past years. The results will help you decide how hot, cold, wet, or windy it might be!

Date:

Astronomy

Nov. 05, 2012 Rise Set
Actual Time 6:33 AM EST 4:34 PM EST
Civil Twilight 6:02 AM EST 5:04 PM EST
Nautical Twilight 5:28 AM EST 5:39 PM EST
Astronomical Twilight 4:54 AM EST 6:12 PM EST
Moon 10:08 PM EST (11/5) 11:51 AM EST (11/5)
Length of Visible Light 11h 02m
Length of Day
10h 01m
Waning Gibbous, 63% of the Moon is Illuminated
Nov 5
Waning Gibbous
Nov 6
Last Quarter
Nov 13
New
Nov 20
First Quarter
Nov 28
Full

Hourly Weather History & Observations

Time (EST) Temp. Windchill Dew Point Humidity Pressure Visibility Wind Dir Wind Speed Gust Speed Precip Events Conditions
12:51 AM 30.9 °F 24.3 °F 24.1 °F 76% 30.03 in 10.0 mi WNW 6.9 mph - N/A   Overcast
1:51 AM 30.9 °F 25.2 °F 24.1 °F 76% 30.03 in 10.0 mi NW 5.8 mph - N/A   Overcast
2:51 AM 30.9 °F 26.2 °F 24.1 °F 76% 30.03 in 10.0 mi NNW 4.6 mph - N/A   Overcast
3:23 AM 30.2 °F 25.4 °F 23.0 °F 75% 29.99 in 10.0 mi NNW 4.6 mph - N/A   Overcast
3:51 AM 30.0 °F 24.1 °F 21.9 °F 72% 30.04 in 10.0 mi NNW 5.8 mph - N/A   Overcast
4:51 AM 30.0 °F 25.2 °F 21.9 °F 72% 30.05 in 10.0 mi NNW 4.6 mph - N/A   Overcast
5:51 AM 30.0 °F 24.1 °F 24.1 °F 79% 30.04 in 10.0 mi NW 5.8 mph - N/A   Overcast
6:51 AM 28.9 °F 23.9 °F 25.0 °F 85% 30.05 in 8.0 mi NW 4.6 mph - 0.00 in Snow Light Snow
7:24 AM 28.4 °F 21.2 °F 24.8 °F 86% 30.02 in 2.0 mi NNW 6.9 mph - 0.00 in Snow Light Snow
7:30 AM 28.4 °F 22.2 °F 26.6 °F 93% 30.02 in 1.2 mi NW 5.8 mph - 0.00 in Snow Light Snow
7:41 AM 28.4 °F 21.2 °F 26.6 °F 93% 30.02 in 0.8 mi NW 6.9 mph - 0.00 in Snow Light Snow
7:51 AM 28.0 °F 21.7 °F 27.0 °F 96% 30.08 in 0.8 mi NW 5.8 mph - 0.00 in Snow Light Snow
8:03 AM 28.4 °F 23.3 °F 26.6 °F 93% 30.03 in 0.8 mi NNW 4.6 mph - 0.01 in Snow Light Snow
8:08 AM 28.4 °F - 26.6 °F 93% 30.03 in 1.2 mi Calm Calm - 0.01 in Snow Light Snow
8:18 AM 28.4 °F 24.6 °F 28.4 °F 100% 30.04 in 1.5 mi NW 3.5 mph - 0.01 in Snow Light Snow
8:27 AM 28.4 °F 23.3 °F 28.4 °F 100% 30.04 in 2.5 mi NNW 4.6 mph - 0.01 in Snow Light Snow
8:37 AM 28.4 °F 24.6 °F 28.4 °F 100% 30.04 in 1.8 mi NW 3.5 mph - 0.01 in Snow Light Snow
8:44 AM 28.4 °F 22.2 °F 28.4 °F 100% 30.04 in 2.0 mi NW 5.8 mph - 0.01 in Snow Light Snow
8:49 AM 28.4 °F 24.6 °F 26.6 °F 93% 30.04 in 1.8 mi NW 3.5 mph - 0.01 in Snow Light Snow
8:51 AM 28.9 °F 22.8 °F 27.0 °F 92% 30.09 in 1.5 mi North 5.8 mph - 0.01 in Snow Light Snow
8:53 AM 28.4 °F 22.2 °F 26.6 °F 93% 30.04 in 1.0 mi North 5.8 mph - 0.00 in Snow Light Snow
9:00 AM 28.4 °F 23.3 °F 26.6 °F 93% 30.04 in 0.2 mi NNW 4.6 mph - 0.01 in Fog , Snow Snow
9:28 AM 28.4 °F 23.3 °F 26.6 °F 93% 30.04 in 0.5 mi NW 4.6 mph - 0.03 in Fog , Snow Snow
9:35 AM 28.4 °F 20.4 °F 26.6 °F 93% 30.04 in 0.2 mi NNW 8.1 mph - 0.04 in Fog , Snow Snow
9:43 AM 28.4 °F 22.2 °F 26.6 °F 93% 30.04 in 2.5 mi NW 5.8 mph - 0.04 in Snow Light Snow
9:51 AM 28.0 °F 17.0 °F 26.1 °F 92% 30.09 in 5.0 mi NW 13.8 mph 19.6 mph 0.04 in Snow Light Snow
9:54 AM 26.6 °F 16.2 °F 24.8 °F 93% 30.05 in 2.5 mi NNW 11.5 mph 20.7 mph 0.00 in Snow Light Snow
9:56 AM 26.6 °F 16.2 °F 24.8 °F 93% 30.05 in 1.2 mi NNW 11.5 mph 20.7 mph 0.00 in Snow Light Snow
9:59 AM 26.6 °F 17.5 °F 24.8 °F 93% 30.05 in 0.8 mi NNW 9.2 mph 20.7 mph 0.00 in Snow Light Snow
10:05 AM 26.6 °F 18.2 °F 24.8 °F 93% 30.05 in 1.0 mi NW 8.1 mph 18.4 mph 0.00 in Snow Light Snow
10:07 AM 26.6 °F 17.5 °F 24.8 °F 93% 30.05 in 1.5 mi NW 9.2 mph - 0.00 in Snow Light Snow
10:09 AM 26.6 °F 19.1 °F 23.0 °F 86% 30.05 in 3.0 mi NW 6.9 mph - 0.00 in Snow Light Snow
10:51 AM 32.0 °F 26.4 °F 23.0 °F 69% 30.09 in 10.0 mi Variable 5.8 mph - 0.00 in   Scattered Clouds
11:06 AM 30.2 °F 21.9 °F 24.8 °F 80% 30.04 in 10.0 mi NNE 9.2 mph - N/A   Mostly Cloudy
11:30 AM 30.2 °F 23.4 °F 23.0 °F 75% 30.04 in 10.0 mi NNW 6.9 mph - N/A   Overcast
11:51 AM 30.9 °F 24.3 °F 19.9 °F 64% 30.09 in 10.0 mi NW 6.9 mph - N/A   Overcast
12:51 PM 30.9 °F 22.2 °F 19.9 °F 64% 30.08 in 10.0 mi NW 10.4 mph 17.3 mph N/A   Overcast
1:51 PM 30.9 °F 23.5 °F 19.9 °F 64% 30.08 in 10.0 mi WNW 8.1 mph - N/A   Overcast
2:51 PM 30.0 °F 21.1 °F 19.9 °F 66% 30.09 in 10.0 mi NW 10.4 mph - N/A   Overcast
3:51 PM 30.0 °F 23.2 °F 19.0 °F 64% 30.10 in 10.0 mi NW 6.9 mph 17.3 mph N/A   Overcast
4:51 PM 28.9 °F 21.1 °F 19.0 °F 67% 30.12 in 10.0 mi NW 8.1 mph 17.3 mph N/A   Overcast
5:51 PM 28.9 °F 22.8 °F 19.0 °F 67% 30.14 in 10.0 mi NNW 5.8 mph - N/A   Overcast
6:51 PM 28.9 °F 23.9 °F 19.0 °F 67% 30.16 in 10.0 mi NNW 4.6 mph - N/A   Overcast
7:51 PM 28.0 °F 20.8 °F 19.9 °F 72% 30.17 in 10.0 mi WNW 6.9 mph - N/A   Overcast
8:51 PM 28.0 °F 19.3 °F 21.0 °F 75% 30.17 in 10.0 mi WNW 9.2 mph - 0.00 in   Overcast
9:51 PM 28.0 °F 20.0 °F 19.0 °F 69% 30.17 in 10.0 mi WNW 8.1 mph - N/A   Overcast
10:51 PM 28.0 °F 20.0 °F 17.1 °F 63% 30.17 in 10.0 mi NW 8.1 mph - N/A   Overcast
11:51 PM 28.0 °F 22.8 °F 15.1 °F 58% 30.17 in 10.0 mi NW 4.6 mph - N/A   Overcast